Time,TemperatureF,DewpointF,PressureIn,WindDirection,WindDirectionDegrees,WindSpeedMPH,WindSpeedGustMPH,Humidity,HourlyPrecipIn,Conditions,Clouds,dailyrainin,SoftwareType,DateUTC
2013-08-22 00:04:00,72.1,63.4,29.35,South,180,0.0,0.0,74,0.00,CLR,,0.00,WeatherDisplay:10.37,2013-08-22 05:04:00,
2013-08-22 00:09:00,72.3,63.6,29.35,South,180,0.0,0.0,74,0.00,CLR,,0.00,WeatherDisplay:10.37,2013-08-22 05:09:00,
2013-08-22 00:14:00,72.5,63.4,29.35,South,184,0.0,0.0,73,0.00,CLR,,0.00,WeatherDisplay:10.37,2013-08-22 05:14:00,
2013-08-22 00:19:00,73.0,63.5,29.35,South,185,0.0,0.0,72,0.00,CLR,,0.00,WeatherDisplay:10.37,2013-08-22 05:19:00,
2013-08-22 00:24:00,73.2,63.6,29.35,South,185,0.0,0.0,72,0.00,CLR,,0.00,WeatherDisplay:10.37,2013-08-22 05:24:00,
2013-08-22 00:29:00,73.2,63.2,29.35,South,185,0.0,0.0,71,0.00,CLR,,0.00,WeatherDisplay:10.37,2013-08-22 05:29:00,
2013-08-22 00:34:00,73.4,62.6,29.35,SSW,196,0.0,0.0,69,0.00,CLR,,0.00,WeatherDisplay:10.37,2013-08-22 05:34:00,
2013-08-22 00:39:00,73.6,62.8,29.35,SSW,200,0.0,0.0,69,0.00,CLR,,0.00,WeatherDisplay:10.37,2013-08-22 05:39:00,
2013-08-22 00:44:00,73.2,62.4,29.35,SSW,194,0.0,0.0,69,0.00,CLR,,0.00,WeatherDisplay:10.37,2013-08-22 05:44:00,
2013-08-22 00:49:00,73.2,62.4,29.35,South,181,0.0,0.0,69,0.00,CLR,,0.00,WeatherDisplay:10.37,2013-08-22 05:49:00,
2013-08-22 00:54:00,73.0,62.3,29.35,South,178,0.0,0.0,69,0.00,CLR,,0.00,WeatherDisplay:10.37,2013-08-22 05:54:00,
2013-08-22 00:59:00,72.5,61.7,29.35,South,175,0.0,0.0,69,0.00,CLR,,0.00,WeatherDisplay:10.37,2013-08-22 05:59:00,
2013-08-22 01:04:00,72.3,62.0,29.35,South,177,0.0,0.0,70,0.00,CLR,,0.00,WeatherDisplay:10.37,2013-08-22 06:04:00,
2013-08-22 01:09:00,72.3,62.0,29.35,South,178,0.0,0.0,70,0.00,CLR,,0.00,WeatherDisplay:10.37,2013-08-22 06:09:00,
2013-08-22 01:14:00,72.0,61.6,29.35,South,174,0.0,0.0,70,0.00,CLR,,0.00,WeatherDisplay:10.37,2013-08-22 06:14:00,
2013-08-22 01:19:00,72.0,62.0,29.32,South,174,0.0,0.0,71,0.00,CLR,,0.00,WeatherDisplay:10.37,2013-08-22 06:19:00,
2013-08-22 01:24:00,72.1,62.2,29.32,South,179,0.0,0.0,71,0.00,CLR,,0.00,WeatherDisplay:10.37,2013-08-22 06:24:00,
2013-08-22 01:29:00,72.3,62.4,29.32,South,185,0.0,0.0,71,0.00,CLR,,0.00,WeatherDisplay:10.37,2013-08-22 06:29:00,
2013-08-22 01:34:00,72.7,62.7,29.32,South,187,0.0,0.0,71,0.00,CLR,,0.00,WeatherDisplay:10.37,2013-08-22 06:34:00,
2013-08-22 01:39:00,73.0,63.1,29.32,SSW,194,0.0,0.0,71,0.00,CLR,,0.00,WeatherDisplay:10.37,2013-08-22 06:39:00,
2013-08-22 01:44:00,73.2,62.8,29.32,SSW,200,0.0,0.0,70,0.00,CLR,,0.00,WeatherDisplay:10.37,2013-08-22 06:44:00,
2013-08-22 01:49:00,73.2,62.8,29.32,SSW,200,0.0,0.0,70,0.00,CLR,,0.00,WeatherDisplay:10.37,2013-08-22 06:49:00,
2013-08-22 01:54:00,73.0,62.7,29.32,SSW,200,0.0,0.0,70,0.00,CLR,,0.00,WeatherDisplay:10.37,2013-08-22 06:54:00,
2013-08-22 01:59:00,72.7,62.3,29.32,SSW,200,0.0,0.0,70,0.00,CLR,,0.00,WeatherDisplay:10.37,2013-08-22 06:59:00,
2013-08-22 02:04:00,72.3,62.0,29.32,SSW,200,0.0,0.0,70,0.00,CLR,,0.00,WeatherDisplay:10.37,2013-08-22 07:04:00,
2013-08-22 02:09:00,72.3,62.0,29.32,SSW,198,0.0,0.0,70,0.00,CLR,,0.00,WeatherDisplay:10.37,2013-08-22 07:09:00,
2013-08-22 02:14:00,72.1,62.2,29.32,SSW,205,1.0,1.0,71,0.00,CLR,,0.00,WeatherDisplay:10.37,2013-08-22 07:14:00,
2013-08-22 02:19:00,72.3,62.4,29.32,SSW,206,1.0,1.0,71,0.00,CLR,,0.00,WeatherDisplay:10.37,2013-08-22 07:19:00,
2013-08-22 02:24:00,72.3,62.4,29.32,SSW,205,2.0,2.0,71,0.00,CLR,,0.00,WeatherDisplay:10.37,2013-08-22 07:24:00,
2013-08-22 02:29:00,72.3,62.8,29.32,SSW,207,2.0,2.0,72,0.00,CLR,,0.00,WeatherDisplay:10.37,2013-08-22 07:29:00,
2013-08-22 02:34:00,72.3,62.8,29.32,SSW,206,3.0,3.0,72,0.00,CLR,,0.00,WeatherDisplay:10.37,2013-08-22 07:34:00,
2013-08-22 02:39:00,72.3,62.8,29.32,SSW,207,3.0,3.0,72,0.00,CLR,,0.00,WeatherDisplay:10.37,2013-08-22 07:39:00,
2013-08-22 02:44:00,72.3,62.8,29.32,SW,214,3.0,3.0,72,0.00,CLR,,0.00,WeatherDisplay:10.37,2013-08-22 07:44:00,
2013-08-22 02:49:00,72.1,62.6,29.35,SW,218,3.0,4.0,72,0.00,CLR,,0.00,WeatherDisplay:10.37,2013-08-22 07:49:00,
2013-08-22 02:54:00,72.1,62.6,29.35,SW,216,3.0,4.0,72,0.00,CLR,,0.00,WeatherDisplay:10.37,2013-08-22 07:54:00,
2013-08-22 02:59:00,72.0,62.4,29.35,SSW,208,3.0,4.0,72,0.00,CLR,,0.00,WeatherDisplay:10.37,2013-08-22 07:59:00,
2013-08-22 03:04:00,71.8,62.3,29.35,SSW,205,3.0,3.0,72,0.00,CLR,,0.00,WeatherDisplay:10.37,2013-08-22 08:04:00,
2013-08-22 03:09:00,71.6,62.1,29.35,SSW,205,2.0,3.0,72,0.00,CLR,,0.00,WeatherDisplay:10.37,2013-08-22 08:09:00,
2013-08-22 03:14:00,71.6,62.5,29.35,SSW,207,2.0,2.0,73,0.00,CLR,,0.00,WeatherDisplay:10.37,2013-08-22 08:14:00,
2013-08-22 03:19:00,71.4,62.3,29.35,SSW,213,2.0,2.0,73,0.00,CLR,,0.00,WeatherDisplay:10.37,2013-08-22 08:19:00,
2013-08-22 03:24:00,71.2,62.5,29.35,SSW,213,2.0,2.0,74,0.00,CLR,,0.00,WeatherDisplay:10.37,2013-08-22 08:24:00,
2013-08-22 03:29:00,71.1,62.4,29.35,SSW,210,2.0,2.0,74,0.00,CLR,,0.00,WeatherDisplay:10.37,2013-08-22 08:29:00,
2013-08-22 03:34:00,71.2,62.5,29.35,SSW,212,1.0,2.0,74,0.00,CLR,,0.00,WeatherDisplay:10.37,2013-08-22 08:34:00,
2013-08-22 03:39:00,70.9,62.2,29.35,SSW,212,1.0,1.0,74,0.00,CLR,,0.00,WeatherDisplay:10.37,2013-08-22 08:39:00,
2013-08-22 03:44:00,70.7,62.0,29.35,SSW,212,1.0,1.0,74,0.00,CLR,,0.00,WeatherDisplay:10.37,2013-08-22 08:44:00,
2013-08-22 03:49:00,70.5,62.2,29.35,SW,215,1.0,1.0,75,0.00,CLR,,0.00,WeatherDisplay:10.37,2013-08-22 08:49:00,
2013-08-22 03:54:00,70.5,62.2,29.35,SW,215,1.0,1.0,75,0.00,CLR,,0.00,WeatherDisplay:10.37,2013-08-22 08:54:00,
2013-08-22 03:59:00,70.3,62.0,29.35,SW,215,1.0,1.0,75,0.00,CLR,,0.00,WeatherDisplay:10.37,2013-08-22 08:59:00,
2013-08-22 04:04:00,70.2,61.9,29.35,SW,215,0.0,1.0,75,0.00,CLR,,0.00,WeatherDisplay:10.37,2013-08-22 09:04:00,
2013-08-22 04:09:00,70.2,62.2,29.35,SW,215,0.0,1.0,76,0.00,CLR,,0.00,WeatherDisplay:10.37,2013-08-22 09:09:00,
2013-08-22 04:14:00,70.2,62.2,29.35,SW,215,0.0,0.0,76,0.00,CLR,,0.00,WeatherDisplay:10.37,2013-08-22 09:14:00,
2013-08-22 04:19:00,70.2,62.2,29.35,SW,215,0.0,0.0,76,0.00,CLR,,0.00,WeatherDisplay:10.37,2013-08-22 09:19:00,
2013-08-22 04:24:00,70.2,62.2,29.35,SW,218,0.0,0.0,76,0.00,CLR,,0.00,WeatherDisplay:10.37,2013-08-22 09:24:00,
2013-08-22 04:29:00,70.0,62.1,29.35,SW,217,1.0,1.0,76,0.00,CLR,,0.00,WeatherDisplay:10.37,2013-08-22 09:29:00,
2013-08-22 04:34:00,70.0,62.4,29.35,SW,216,1.0,1.0,77,0.00,CLR,,0.00,WeatherDisplay:10.37,2013-08-22 09:34:00,
2013-08-22 04:39:00,70.0,62.4,29.35,SSW,213,1.0,2.0,77,0.00,CLR,,0.00,WeatherDisplay:10.37,2013-08-22 09:39:00,
2013-08-22 04:44:00,70.0,62.4,29.35,SSW,206,2.0,2.0,77,0.00,CLR,,0.00,WeatherDisplay:10.37,2013-08-22 09:44:00,
2013-08-22 04:49:00,69.8,62.3,29.35,SSW,203,1.0,2.0,77,0.00,CLR,,0.00,WeatherDisplay:10.37,2013-08-22 09:49:00,
2013-08-22 04:54:00,69.8,62.3,29.35,SSW,205,1.0,2.0,77,0.00,CLR,,0.00,WeatherDisplay:10.37,2013-08-22 09:54:00,
2013-08-22 04:59:00,70.2,62.6,29.35,SSW,210,1.0,1.0,77,0.00,CLR,,0.00,WeatherDisplay:10.37,2013-08-22 09:59:00,
2013-08-22 05:04:00,70.2,62.6,29.35,SSW,211,1.0,2.0,77,0.00,CLR,,0.00,WeatherDisplay:10.37,2013-08-22 10:04:00,
2013-08-22 05:09:00,70.2,62.6,29.35,SSW,212,2.0,2.0,77,0.00,CLR,,0.00,WeatherDisplay:10.37,2013-08-22 10:09:00,
2013-08-22 05:14:00,70.3,62.8,29.35,SW,214,2.0,2.0,77,0.00,CLR,,0.00,WeatherDisplay:10.37,2013-08-22 10:14:00,
2013-08-22 05:19:00,70.2,62.6,29.35,SW,215,2.0,2.0,77,0.00,CLR,,0.00,WeatherDisplay:10.37,2013-08-22 10:19:00,
2013-08-22 05:24:00,70.2,62.2,29.35,SW,215,2.0,2.0,76,0.00,CLR,,0.00,WeatherDisplay:10.37,2013-08-22 10:24:00,
2013-08-22 05:29:00,70.2,62.2,29.35,SW,215,2.0,2.0,76,0.00,CLR,,0.00,WeatherDisplay:10.37,2013-08-22 10:29:00,
2013-08-22 05:34:00,70.2,62.2,29.35,SSW,212,2.0,2.0,76,0.00,CLR,,0.00,WeatherDisplay:10.37,2013-08-22 10:34:00,
2013-08-22 05:39:00,70.2,62.2,29.35,SSW,211,2.0,2.0,76,0.00,CLR,,0.00,WeatherDisplay:10.37,2013-08-22 10:39:00,
2013-08-22 05:44:00,70.2,62.2,29.35,SW,217,1.0,2.0,76,0.00,CLR,,0.00,WeatherDisplay:10.37,2013-08-22 10:44:00,
2013-08-22 05:49:00,69.8,61.9,29.35,SW,218,1.0,1.0,76,0.00,CLR,,0.00,WeatherDisplay:10.37,2013-08-22 10:49:00,
2013-08-22 07:29:00,71.2,62.9,29.35,SW,219,2.0,3.0,75,0.00,CLR,,0.00,WeatherDisplay:10.37,2013-08-22 12:29:00,
2013-08-22 07:34:00,71.6,62.9,29.35,SW,215,2.0,3.0,74,0.00,CLR,,0.00,WeatherDisplay:10.37,2013-08-22 12:34:00,
2013-08-22 07:39:00,71.8,63.0,29.35,SW,217,3.0,3.0,74,0.00,CLR,,0.00,WeatherDisplay:10.37,2013-08-22 12:39:00,
2013-08-22 07:44:00,72.3,63.6,29.35,SW,218,3.0,3.0,74,0.00,CLR,,0.00,WeatherDisplay:10.37,2013-08-22 12:44:00,
2013-08-22 07:49:00,72.7,63.9,29.35,SW,219,3.0,3.0,74,0.00,CLR,,0.00,WeatherDisplay:10.37,2013-08-22 12:49:00,
2013-08-22 07:54:00,72.9,63.7,29.35,SW,226,3.0,3.0,73,0.00,CLR,,0.00,WeatherDisplay:10.37,2013-08-22 12:54:00,
2013-08-22 07:59:00,72.9,63.7,29.35,SW,235,3.0,3.0,73,0.00,CLR,,0.00,WeatherDisplay:10.37,2013-08-22 12:59:00,
2013-08-22 08:04:00,73.8,64.2,29.38,SW,232,2.0,3.0,72,0.00,CLR,,0.00,WeatherDisplay:10.37,2013-08-22 13:04:00,
2013-08-22 08:09:00,73.9,64.3,29.38,SW,228,2.0,2.0,72,0.00,CLR,,0.00,WeatherDisplay:10.37,2013-08-22 13:09:00,
2013-08-22 08:14:00,74.3,64.3,29.38,SW,227,2.0,2.0,71,0.00,CLR,,0.00,WeatherDisplay:10.37,2013-08-22 13:14:00,
2013-08-22 08:19:00,74.7,64.6,29.38,SW,225,2.0,2.0,71,0.00,CLR,,0.00,WeatherDisplay:10.37,2013-08-22 13:19:00,
2013-08-22 08:24:00,74.8,64.8,29.38,SW,227,2.0,2.0,71,0.00,CLR,,0.00,WeatherDisplay:10.37,2013-08-22 13:24:00,
2013-08-22 08:29:00,75.4,64.9,29.38,SW,222,2.0,2.0,70,0.00,CLR,,0.00,WeatherDisplay:10.37,2013-08-22 13:29:00,
2013-08-22 08:34:00,75.9,65.0,29.38,SW,224,2.0,2.0,69,0.00,CLR,,0.00,WeatherDisplay:10.37,2013-08-22 13:34:00,
2013-08-22 08:39:00,76.3,65.4,29.38,SW,233,2.0,3.0,69,0.00,CLR,,0.00,WeatherDisplay:10.37,2013-08-22 13:39:00,
2013-08-22 08:44:00,77.0,65.6,29.38,WSW,252,2.0,2.0,68,0.00,CLR,,0.00,WeatherDisplay:10.37,2013-08-22 13:44:00,
2013-08-22 08:49:00,77.4,65.5,29.38,WSW,239,3.0,3.0,67,0.00,CLR,,0.00,WeatherDisplay:10.37,2013-08-22 13:49:00,
2013-08-22 08:54:00,77.7,65.9,29.38,SW,231,2.0,3.0,67,0.00,CLR,,0.00,WeatherDisplay:10.37,2013-08-22 13:54:00,
2013-08-22 08:59:00,77.9,65.6,29.38,WSW,240,2.0,3.0,66,0.00,CLR,,0.00,WeatherDisplay:10.37,2013-08-22 13:59:00,
2013-08-22 09:04:00,78.6,66.3,29.38,West,259,2.0,3.0,66,0.00,CLR,,0.00,WeatherDisplay:10.37,2013-08-22 14:04:00,
2013-08-22 09:09:00,78.8,65.6,29.38,WSW,254,2.0,3.0,64,0.00,CLR,,0.00,WeatherDisplay:10.37,2013-08-22 14:09:00,
2013-08-22 09:14:00,79.3,66.1,29.38,WSW,246,2.0,2.0,64,0.00,CLR,,0.00,WeatherDisplay:10.37,2013-08-22 14:14:00,
2013-08-22 09:19:00,79.9,66.2,29.35,WSW,252,1.0,2.0,63,0.00,CLR,,0.00,WeatherDisplay:10.37,2013-08-22 14:19:00,
2013-08-22 09:24:00,79.9,66.2,29.35,WSW,255,1.0,2.0,63,0.00,CLR,,0.00,WeatherDisplay:10.37,2013-08-22 14:24:00,
2013-08-22 09:29:00,80.8,66.5,29.35,West,262,1.0,2.0,62,0.00,CLR,,0.00,WeatherDisplay:10.37,2013-08-22 14:29:00,
2013-08-22 09:34:00,81.5,66.3,29.35,West,263,2.0,2.0,60,0.00,CLR,,0.00,WeatherDisplay:10.37,2013-08-22 14:34:00,
2013-08-22 09:39:00,82.0,66.8,29.35,WSW,258,2.0,3.0,60,0.00,CLR,,0.00,WeatherDisplay:10.37,2013-08-22 14:39:00,
2013-08-22 09:44:00,82.2,66.5,29.35,West,261,3.0,3.0,59,0.00,CLR,,0.00,WeatherDisplay:10.37,2013-08-22 14:44:00,
2013-08-22 09:49:00,82.4,66.1,29.35,West,259,3.0,4.0,58,0.00,CLR,,0.00,WeatherDisplay:10.37,2013-08-22 14:49:00,
2013-08-22 09:54:00,82.2,66.5,29.35,WSW,256,3.0,4.0,59,0.00,CLR,,0.00,WeatherDisplay:10.37,2013-08-22 14:54:00,
2013-08-22 09:59:00,82.6,66.3,29.35,WSW,252,3.0,4.0,58,0.00,CLR,,0.00,WeatherDisplay:10.37,2013-08-22 14:59:00,
2013-08-22 10:04:00,82.6,66.3,29.35,West,270,3.0,4.0,58,0.00,CLR,,0.00,WeatherDisplay:10.37,2013-08-22 15:04:00,
2013-08-22 10:09:00,82.6,66.3,29.35,West,274,3.0,4.0,58,0.00,CLR,,0.00,WeatherDisplay:10.37,2013-08-22 15:09:00,
2013-08-22 10:14:00,83.7,67.3,29.35,West,269,3.0,4.0,58,0.00,CLR,,0.00,WeatherDisplay:10.37,2013-08-22 15:14:00,
2013-08-22 10:19:00,84.0,67.1,29.35,West,264,5.0,5.0,57,0.00,CLR,,0.00,WeatherDisplay:10.37,2013-08-22 15:19:00,
2013-08-22 10:24:00,84.0,67.1,29.35,West,277,5.0,5.0,57,0.00,CLR,,0.00,WeatherDisplay:10.37,2013-08-22 15:24:00,
2013-08-22 10:29:00,84.4,67.5,29.38,WNW,282,5.0,5.0,57,0.00,CLR,,0.00,WeatherDisplay:10.37,2013-08-22 15:29:00,
2013-08-22 10:34:00,84.2,66.8,29.38,WNW,283,5.0,5.0,56,0.00,CLR,,0.00,WeatherDisplay:10.37,2013-08-22 15:34:00,
2013-08-22 10:39:00,84.2,66.8,29.35,WNW,286,3.0,5.0,56,0.00,CLR,,0.00,WeatherDisplay:10.37,2013-08-22 15:39:00,
2013-08-22 10:44:00,84.6,67.1,29.35,West,274,5.0,5.0,56,0.00,CLR,,0.00,WeatherDisplay:10.37,2013-08-22 15:44:00,
2013-08-22 10:49:00,84.7,67.8,29.35,West,274,5.0,5.0,57,0.00,CLR,,0.00,WeatherDisplay:10.37,2013-08-22 15:49:00,
2013-08-22 10:54:00,84.7,67.8,29.35,West,275,5.0,5.0,57,0.00,CLR,,0.00,WeatherDisplay:10.37,2013-08-22 15:54:00,
2013-08-22 10:59:00,84.9,67.5,29.35,West,277,5.0,5.0,56,0.00,CLR,,0.00,WeatherDisplay:10.37,2013-08-22 15:59:00,
2013-08-22 11:04:00,85.8,68.3,29.35,WNW,283,3.0,5.0,56,0.00,CLR,,0.00,WeatherDisplay:10.37,2013-08-22 16:04:00,
2013-08-22 11:09:00,86.2,67.6,29.35,West,278,3.0,4.0,54,0.00,CLR,,0.00,WeatherDisplay:10.37,2013-08-22 16:09:00,
2013-08-22 11:14:00,86.5,67.4,29.35,West,268,3.0,4.0,53,0.00,CLR,,0.00,WeatherDisplay:10.37,2013-08-22 16:14:00,
2013-08-22 11:19:00,86.0,66.9,29.35,NW,311,3.0,3.0,53,0.00,CLR,,0.00,WeatherDisplay:10.37,2013-08-22 16:19:00,
2013-08-22 11:24:00,85.1,66.6,29.38,NNW,334,3.0,3.0,54,0.00,CLR,,0.00,WeatherDisplay:10.37,2013-08-22 16:24:00,
2013-08-22 11:29:00,86.5,68.5,29.35,NNW,332,3.0,3.0,55,0.00,CLR,,0.00,WeatherDisplay:10.37,2013-08-22 16:29:00,
2013-08-22 11:34:00,86.4,67.8,29.35,NW,318,3.0,3.0,54,0.00,CLR,,0.00,WeatherDisplay:10.37,2013-08-22 16:34:00,
2013-08-22 11:39:00,86.4,67.2,29.35,WNW,303,3.0,3.0,53,0.00,CLR,,0.00,WeatherDisplay:10.37,2013-08-22 16:39:00,
2013-08-22 11:44:00,86.7,68.1,29.35,WNW,286,2.0,3.0,54,0.00,CLR,,0.00,WeatherDisplay:10.37,2013-08-22 16:44:00,
2013-08-22 11:49:00,87.3,68.0,29.35,West,273,2.0,3.0,53,0.00,CLR,,0.00,WeatherDisplay:10.37,2013-08-22 16:49:00,
2013-08-22 11:54:00,87.4,68.2,29.35,West,269,2.0,2.0,53,0.00,CLR,,0.00,WeatherDisplay:10.37,2013-08-22 16:54:00,
2013-08-22 11:59:00,88.0,68.1,29.35,WNW,298,2.0,2.0,52,0.00,CLR,,0.00,WeatherDisplay:10.37,2013-08-22 16:59:00,
2013-08-22 12:04:00,86.9,67.7,29.35,NNW,327,2.0,2.0,53,0.00,CLR,,0.00,WeatherDisplay:10.37,2013-08-22 17:04:00,
2013-08-22 12:09:00,87.8,68.0,29.35,NW,321,2.0,2.0,52,0.00,CLR,,0.00,WeatherDisplay:10.37,2013-08-22 17:09:00,
2013-08-22 12:14:00,87.8,67.4,29.35,WNW,288,2.0,2.0,51,0.00,CLR,,0.00,WeatherDisplay:10.37,2013-08-22 17:14:00,
2013-08-22 12:19:00,87.6,68.4,29.35,WNW,284,1.0,2.0,53,0.00,CLR,,0.00,WeatherDisplay:10.37,2013-08-22 17:19:00,
2013-08-22 12:24:00,88.0,68.1,29.35,WNW,285,1.0,2.0,52,0.00,CLR,,0.00,WeatherDisplay:10.37,2013-08-22 17:24:00,
2013-08-22 12:29:00,88.5,68.6,29.35,WNW,283,1.0,2.0,52,0.00,CLR,,0.00,WeatherDisplay:10.37,2013-08-22 17:29:00,
2013-08-22 12:34:00,88.9,69.0,29.35,West,279,1.0,2.0,52,0.00,CLR,,0.00,WeatherDisplay:10.37,2013-08-22 17:34:00,
2013-08-22 12:39:00,88.9,68.4,29.35,West,271,1.0,2.0,51,0.00,CLR,,0.00,WeatherDisplay:10.37,2013-08-22 17:39:00,
2013-08-22 12:44:00,88.9,67.2,29.35,West,265,1.0,2.0,49,0.00,CLR,,0.00,WeatherDisplay:10.37,2013-08-22 17:44:00,
2013-08-22 12:49:00,90.0,68.8,29.35,WNW,286,1.0,2.0,50,0.00,CLR,,0.00,WeatherDisplay:10.37,2013-08-22 17:49:00,
2013-08-22 12:54:00,90.0,68.8,29.35,WNW,291,1.0,2.0,50,0.00,CLR,,0.00,WeatherDisplay:10.37,2013-08-22 17:54:00,
2013-08-22 12:59:00,88.9,67.8,29.35,WNW,297,1.0,2.0,50,0.00,CLR,,0.00,WeatherDisplay:10.37,2013-08-22 17:59:00,
2013-08-22 13:04:00,88.7,68.2,29.35,West,262,1.0,1.0,51,0.00,CLR,,0.00,WeatherDisplay:10.37,2013-08-22 18:04:00,
2013-08-22 13:09:00,87.6,67.3,29.35,West,273,1.0,1.0,51,0.00,CLR,,0.00,WeatherDisplay:10.37,2013-08-22 18:09:00,
2013-08-22 13:14:00,88.5,68.6,29.35,NNW,343,1.0,1.0,52,0.00,CLR,,0.00,WeatherDisplay:10.37,2013-08-22 18:14:00,
2013-08-22 13:19:00,88.0,66.4,29.35,NNW,336,1.0,1.0,49,0.00,CLR,,0.00,WeatherDisplay:10.37,2013-08-22 18:19:00,
2013-08-22 13:24:00,87.4,65.9,29.35,NNW,334,1.0,1.0,49,0.00,CLR,,0.00,WeatherDisplay:10.37,2013-08-22 18:24:00,
2013-08-22 13:29:00,88.0,67.6,29.35,NNW,338,1.0,1.0,51,0.00,CLR,,0.00,WeatherDisplay:10.37,2013-08-22 18:29:00,
2013-08-22 13:34:00,88.2,67.2,29.35,NNW,328,1.0,1.0,50,0.00,CLR,,0.00,WeatherDisplay:10.37,2013-08-22 18:34:00,
2013-08-22 13:39:00,88.3,66.8,29.35,NW,311,1.0,1.0,49,0.00,CLR,,0.00,WeatherDisplay:10.37,2013-08-22 18:39:00,
2013-08-22 13:44:00,88.5,66.9,29.35,WNW,292,1.0,1.0,49,0.00,CLR,,0.00,WeatherDisplay:10.37,2013-08-22 18:44:00,
2013-08-22 13:49:00,88.9,67.8,29.35,WNW,295,1.0,1.0,50,0.00,CLR,,0.00,WeatherDisplay:10.37,2013-08-22 18:49:00,
2013-08-22 13:54:00,89.1,68.0,29.35,WNW,295,1.0,1.0,50,0.00,CLR,,0.00,WeatherDisplay:10.37,2013-08-22 18:54:00,
2013-08-22 13:59:00,88.9,67.2,29.35,North,8,1.0,1.0,49,0.00,CLR,,0.00,WeatherDisplay:10.37,2013-08-22 18:59:00,
2013-08-22 14:04:00,88.2,67.2,29.35,ENE,65,1.0,1.0,50,0.00,-RA,,0.00,WeatherDisplay:10.37,2013-08-22 19:04:00,
2013-08-22 14:09:00,88.2,66.0,29.35,NNE,24,1.0,1.0,48,0.00,-RA,,0.00,WeatherDisplay:10.37,2013-08-22 19:09:00,
2013-08-22 14:14:00,89.1,67.4,29.35,NNW,329,1.0,1.0,49,0.00,-RA,,0.00,WeatherDisplay:10.37,2013-08-22 19:14:00,
2013-08-22 14:19:00,89.2,67.6,29.35,NNW,347,1.0,1.0,49,0.00,-RA,,0.00,WeatherDisplay:10.37,2013-08-22 19:19:00,
2013-08-22 14:24:00,88.7,67.1,29.35,NNE,30,1.0,1.0,49,0.00,-RA,,0.00,WeatherDisplay:10.37,2013-08-22 19:24:00,
2013-08-22 14:29:00,88.7,67.1,29.35,East,90,1.0,1.0,49,0.00,-RA,,0.00,WeatherDisplay:10.37,2013-08-22 19:29:00,
2013-08-22 14:39:00,88.0,67.6,29.35,NE,42,1.0,1.0,51,0.00,-DZ,,0.00,WeatherDisplay:10.37,2013-08-22 19:39:00,
2013-08-22 14:44:00,86.9,68.3,29.35,NE,52,2.0,2.0,54,0.00,-DZ,,0.00,WeatherDisplay:10.37,2013-08-22 19:44:00,
2013-08-22 14:49:00,87.3,69.1,29.35,NE,51,2.0,3.0,55,0.00,CLR,,0.00,WeatherDisplay:10.37,2013-08-22 19:49:00,
2013-08-22 14:54:00,87.3,68.6,29.35,NE,53,3.0,3.0,54,0.00,CLR,,0.00,WeatherDisplay:10.37,2013-08-22 19:54:00,
2013-08-22 14:59:00,87.1,67.9,29.32,ENE,59,3.0,4.0,53,0.00,CLR,,0.00,WeatherDisplay:10.37,2013-08-22 19:59:00,
2013-08-22 15:04:00,87.4,68.8,29.32,ENE,59,5.0,5.0,54,0.00,SCT,,0.00,WeatherDisplay:10.37,2013-08-22 20:04:00,
2013-08-22 15:09:00,87.3,68.6,29.35,ENE,75,5.0,5.0,54,0.00,SCT,,0.00,WeatherDisplay:10.37,2013-08-22 20:09:00,
2013-08-22 15:14:00,87.1,67.9,29.35,East,97,5.0,5.0,53,0.00,SCT,,0.00,WeatherDisplay:10.37,2013-08-22 20:14:00,
2013-08-22 15:19:00,87.1,69.0,29.32,East,84,5.0,5.0,55,0.00,SCT,,0.00,WeatherDisplay:10.37,2013-08-22 20:19:00,
2013-08-22 15:24:00,86.5,68.5,29.32,ENE,71,5.0,5.0,55,0.00,SCT,,0.00,WeatherDisplay:10.37,2013-08-22 20:24:00,
2013-08-22 15:29:00,86.2,68.1,29.32,East,85,6.0,6.0,55,0.00,SCT,,0.00,WeatherDisplay:10.37,2013-08-22 20:29:00,
2013-08-22 15:39:00,85.3,68.8,29.32,NE,54,6.0,6.0,58,0.00,CLR,,0.00,WeatherDisplay:10.37,2013-08-22 20:39:00,
2013-08-22 15:44:00,84.4,68.5,29.32,NE,34,6.0,6.0,59,0.00,CLR,,0.00,WeatherDisplay:10.37,2013-08-22 20:44:00,
2013-08-22 15:54:00,83.8,70.4,29.32,North,6,5.0,6.0,64,0.00,SCT,,0.00,WeatherDisplay:10.37,2013-08-22 20:54:00,
2013-08-22 15:59:00,81.3,69.3,29.35,NW,326,5.0,5.0,67,0.04,RA,,0.06,WeatherDisplay:10.37,2013-08-22 20:59:00,
2013-08-22 16:04:00,76.3,65.4,29.35,NE,37,6.0,6.0,69,0.01,RA,,0.07,WeatherDisplay:10.37,2013-08-22 21:04:00,
2013-08-22 16:09:00,76.3,65.4,29.35,ENE,59,6.0,6.0,69,0.00,RA,,0.07,WeatherDisplay:10.37,2013-08-22 21:09:00,
2013-08-22 16:14:00,73.6,64.4,29.35,ENE,57,7.0,7.0,73,0.00,SCT,,0.07,WeatherDisplay:10.37,2013-08-22 21:14:00,
2013-08-22 16:19:00,73.9,65.1,29.35,ENE,57,8.0,8.0,74,0.00,SCT,,0.07,WeatherDisplay:10.37,2013-08-22 21:19:00,
2013-08-22 16:24:00,74.3,65.5,29.35,NE,56,8.0,9.0,74,0.00,SCT,,0.07,WeatherDisplay:10.37,2013-08-22 21:24:00,
2013-08-22 16:29:00,74.8,65.6,29.35,East,79,9.0,9.0,73,0.00,SCT,,0.07,WeatherDisplay:10.37,2013-08-22 21:29:00,
2013-08-22 16:34:00,74.8,65.2,29.35,ENE,76,9.0,10.0,72,0.00,BKN,,0.07,WeatherDisplay:10.37,2013-08-22 21:34:00,
2013-08-22 16:39:00,74.8,65.2,29.35,ENE,61,9.0,10.0,72,0.00,BKN,,0.07,WeatherDisplay:10.37,2013-08-22 21:39:00,
2013-08-22 16:44:00,75.7,65.3,29.32,ENE,67,9.0,10.0,70,0.00,BKN,,0.07,WeatherDisplay:10.37,2013-08-22 21:44:00,
2013-08-22 16:49:00,75.6,64.3,29.32,East,99,10.0,10.0,68,0.00,-RA,,0.07,WeatherDisplay:10.37,2013-08-22 21:49:00,
2013-08-22 16:54:00,75.6,64.3,29.32,East,91,10.0,10.0,68,0.00,-RA,,0.07,WeatherDisplay:10.37,2013-08-22 21:54:00,
2013-08-22 16:59:00,75.9,65.0,29.32,East,81,10.0,11.0,69,0.00,-RA,,0.07,WeatherDisplay:10.37,2013-08-22 21:59:00,
2013-08-22 17:04:00,76.3,65.4,29.32,ESE,103,12.0,12.0,69,0.00,-RA,,0.07,WeatherDisplay:10.37,2013-08-22 22:04:00,
2013-08-22 17:09:00,76.8,65.9,29.32,ESE,110,12.0,12.0,69,0.00,-RA,,0.07,WeatherDisplay:10.37,2013-08-22 22:09:00,
2013-08-22 17:14:00,77.0,65.2,29.32,ESE,111,12.0,12.0,67,0.00,-RA,,0.07,WeatherDisplay:10.37,2013-08-22 22:14:00,
2013-08-22 17:19:00,77.2,64.9,29.32,East,97,12.0,12.0,66,0.00,-RA,,0.07,WeatherDisplay:10.37,2013-08-22 22:19:00,
2013-08-22 17:24:00,77.4,65.1,29.32,East,92,12.0,12.0,66,0.00,-RA,,0.09,WeatherDisplay:10.37,2013-08-22 22:24:00,
2013-08-22 17:29:00,77.4,65.1,29.32,East,93,12.0,12.0,66,0.00,-RA,,0.09,WeatherDisplay:10.37,2013-08-22 22:29:00,
2013-08-22 17:34:00,77.4,64.7,29.32,ENE,69,12.0,12.0,65,0.00,-RA,,0.09,WeatherDisplay:10.37,2013-08-22 22:34:00,
2013-08-22 17:39:00,77.0,63.9,29.32,ENE,60,12.0,12.0,64,0.00,-RA,,0.09,WeatherDisplay:10.37,2013-08-22 22:39:00,
2013-08-22 17:44:00,77.0,64.3,29.32,ENE,73,10.0,11.0,65,0.00,-RA,,0.09,WeatherDisplay:10.37,2013-08-22 22:44:00,
2013-08-22 17:49:00,76.5,63.8,29.32,East,89,10.0,10.0,65,0.00,-RA,,0.09,WeatherDisplay:10.37,2013-08-22 22:49:00,
2013-08-22 17:54:00,76.5,63.8,29.32,East,90,10.0,10.0,65,0.00,-RA,,0.09,WeatherDisplay:10.37,2013-08-22 22:54:00,
2013-08-22 17:59:00,76.3,63.6,29.32,East,98,9.0,10.0,65,0.00,-RA,,0.09,WeatherDisplay:10.37,2013-08-22 22:59:00,
2013-08-22 18:04:00,76.1,63.5,29.32,East,100,9.0,10.0,65,0.00,-RA,,0.09,WeatherDisplay:10.37,2013-08-22 23:04:00,
2013-08-22 18:09:00,76.3,64.1,29.32,East,98,9.0,10.0,66,0.00,-RA,,0.09,WeatherDisplay:10.37,2013-08-22 23:09:00,
2013-08-22 18:14:00,76.3,64.1,29.32,East,90,9.0,9.0,66,0.00,-RA,,0.09,WeatherDisplay:10.37,2013-08-22 23:14:00,
2013-08-22 18:19:00,76.3,64.1,29.32,ESE,106,9.0,9.0,66,0.00,-RA,,0.09,WeatherDisplay:10.37,2013-08-22 23:19:00,
2013-08-22 18:24:00,76.3,64.1,29.32,ESE,113,8.0,9.0,66,0.00,-RA,,0.09,WeatherDisplay:10.37,2013-08-22 23:24:00,
2013-08-22 18:29:00,76.3,64.1,29.32,ESE,104,8.0,8.0,66,0.00,-RA,,0.09,WeatherDisplay:10.37,2013-08-22 23:29:00,
2013-08-22 18:34:00,76.5,64.3,29.32,ESE,107,8.0,8.0,66,0.00,CLR,,0.09,WeatherDisplay:10.37,2013-08-22 23:34:00,
2013-08-22 18:39:00,76.5,64.3,29.32,ESE,107,8.0,8.0,66,0.00,CLR,,0.09,WeatherDisplay:10.37,2013-08-22 23:39:00,
2013-08-22 18:44:00,76.6,64.4,29.32,East,98,8.0,8.0,66,0.00,CLR,,0.09,WeatherDisplay:10.37,2013-08-22 23:44:00,
2013-08-22 18:49:00,76.6,64.4,29.32,East,92,7.0,8.0,66,0.00,CLR,,0.09,WeatherDisplay:10.37,2013-08-22 23:49:00,
2013-08-22 18:54:00,76.6,64.4,29.32,East,93,7.0,7.0,66,0.00,CLR,,0.09,WeatherDisplay:10.37,2013-08-22 23:54:00,
2013-08-22 18:59:00,76.6,64.4,29.32,East,90,7.0,7.0,66,0.00,CLR,,0.09,WeatherDisplay:10.37,2013-08-22 23:59:00,
2013-08-22 19:04:00,76.3,63.6,29.32,East,97,7.0,7.0,65,0.00,CLR,,0.09,WeatherDisplay:10.37,2013-08-23 00:04:00,
2013-08-22 19:09:00,76.3,63.6,29.32,ESE,103,6.0,7.0,65,0.00,CLR,,0.09,WeatherDisplay:10.37,2013-08-23 00:09:00,
2013-08-22 19:14:00,75.9,63.7,29.32,ESE,105,6.0,6.0,66,0.00,CLR,,0.09,WeatherDisplay:10.37,2013-08-23 00:14:00,
2013-08-22 19:19:00,75.6,63.4,29.32,ESE,105,6.0,6.0,66,0.00,CLR,,0.09,WeatherDisplay:10.37,2013-08-23 00:19:00,
2013-08-22 19:24:00,75.6,63.4,29.32,ESE,105,6.0,6.0,66,0.00,CLR,,0.09,WeatherDisplay:10.37,2013-08-23 00:24:00,
2013-08-22 19:29:00,75.0,63.3,29.32,East,82,5.0,5.0,67,0.00,CLR,,0.09,WeatherDisplay:10.37,2013-08-23 00:29:00,
2013-08-22 19:34:00,74.7,63.0,29.32,ENE,74,3.0,5.0,67,0.00,CLR,,0.09,WeatherDisplay:10.37,2013-08-23 00:34:00,
2013-08-22 19:39:00,74.5,62.8,29.32,ENE,77,3.0,3.0,67,0.00,CLR,,0.09,WeatherDisplay:10.37,2013-08-23 00:39:00,
2013-08-22 19:44:00,74.3,63.1,29.32,East,80,2.0,3.0,68,0.00,CLR,,0.09,WeatherDisplay:10.37,2013-08-23 00:44:00,
2013-08-22 19:49:00,74.1,63.3,29.32,East,101,2.0,2.0,69,0.00,CLR,,0.09,WeatherDisplay:10.37,2013-08-23 00:49:00,
2013-08-22 19:54:00,73.9,63.1,29.32,ESE,117,2.0,2.0,69,0.00,CLR,,0.09,WeatherDisplay:10.37,2013-08-23 00:54:00,
2013-08-22 19:59:00,73.8,63.0,29.32,SE,127,1.0,2.0,69,0.00,CLR,,0.09,WeatherDisplay:10.37,2013-08-23 00:59:00,
2013-08-22 20:04:00,73.6,63.2,29.32,SE,125,1.0,1.0,70,0.00,CLR,,0.09,WeatherDisplay:10.37,2013-08-23 01:04:00,
2013-08-22 20:09:00,73.6,63.2,29.32,ESE,123,1.0,1.0,70,0.00,CLR,,0.09,WeatherDisplay:10.37,2013-08-23 01:09:00,
2013-08-22 20:14:00,73.4,63.0,29.32,ESE,120,1.0,1.0,70,0.00,CLR,,0.09,WeatherDisplay:10.37,2013-08-23 01:14:00,
2013-08-22 20:19:00,73.4,63.0,29.32,ESE,120,1.0,1.0,70,0.00,CLR,,0.09,WeatherDisplay:10.37,2013-08-23 01:19:00,
2013-08-22 20:24:00,73.4,63.0,29.32,ESE,120,1.0,1.0,70,0.00,CLR,,0.09,WeatherDisplay:10.37,2013-08-23 01:24:00,
2013-08-22 20:29:00,73.4,63.0,29.32,ESE,120,0.0,1.0,70,0.00,CLR,,0.09,WeatherDisplay:10.37,2013-08-23 01:29:00,
2013-08-22 20:34:00,73.2,63.2,29.32,ESE,120,0.0,0.0,71,0.00,CLR,,0.09,WeatherDisplay:10.37,2013-08-23 01:34:00,
2013-08-22 20:39:00,73.2,63.2,29.32,ESE,120,0.0,0.0,71,0.00,CLR,,0.09,WeatherDisplay:10.37,2013-08-23 01:39:00,
2013-08-22 20:44:00,73.0,63.1,29.32,ESE,120,0.0,0.0,71,0.00,CLR,,0.09,WeatherDisplay:10.37,2013-08-23 01:44:00,
2013-08-22 20:49:00,73.0,63.1,29.32,ESE,120,0.0,0.0,71,0.00,CLR,,0.09,WeatherDisplay:10.37,2013-08-23 01:49:00,
2013-08-22 20:54:00,73.0,63.1,29.32,ESE,120,0.0,0.0,71,0.00,CLR,,0.09,WeatherDisplay:10.37,2013-08-23 01:54:00,
2013-08-22 20:59:00,73.0,63.1,29.32,ESE,120,0.0,0.0,71,0.00,CLR,,0.09,WeatherDisplay:10.37,2013-08-23 01:59:00,
2013-08-22 21:04:00,72.9,63.3,29.32,ESE,120,0.0,0.0,72,0.00,CLR,,0.09,WeatherDisplay:10.37,2013-08-23 02:04:00,
2013-08-22 21:09:00,72.7,63.5,29.32,ESE,120,0.0,0.0,73,0.00,CLR,,0.09,WeatherDisplay:10.37,2013-08-23 02:09:00,
2013-08-22 21:14:00,72.1,63.0,29.32,ESE,120,0.0,0.0,73,0.00,CLR,,0.09,WeatherDisplay:10.37,2013-08-23 02:14:00,
2013-08-22 21:19:00,72.1,63.4,29.32,ESE,120,0.0,0.0,74,0.00,CLR,,0.09,WeatherDisplay:10.37,2013-08-23 02:19:00,
2013-08-22 21:29:00,72.1,63.4,29.32,ESE,120,0.0,0.0,74,0.00,CLR,,0.09,WeatherDisplay:10.37,2013-08-23 02:29:00,
2013-08-22 21:34:00,72.1,63.4,29.32,ESE,120,0.0,0.0,74,0.00,CLR,,0.09,WeatherDisplay:10.37,2013-08-23 02:34:00,
2013-08-22 21:35:00,74.1,67.9,29.38,ENE,62,0.0,1.0,81,0.00,RA,,0.16,WeatherDisplay:10.37,2013-08-23 02:35:00,
2013-08-22 21:39:00,72.1,63.8,29.32,ESE,120,0.0,0.0,75,0.00,CLR,,0.09,WeatherDisplay:10.37,2013-08-23 02:39:00,
2013-08-22 21:44:00,72.1,63.4,29.32,ESE,120,0.0,0.0,74,0.00,CLR,,0.09,WeatherDisplay:10.37,2013-08-23 02:44:00,
2013-08-22 21:49:00,72.1,63.4,29.32,ESE,120,0.0,0.0,74,0.00,CLR,,0.09,WeatherDisplay:10.37,2013-08-23 02:49:00,
2013-08-22 21:54:00,72.0,63.2,29.32,ESE,120,0.0,0.0,74,0.00,CLR,,0.09,WeatherDisplay:10.37,2013-08-23 02:54:00,
2013-08-22 21:59:00,72.1,63.4,29.32,ESE,120,0.0,0.0,74,0.00,CLR,,0.09,WeatherDisplay:10.37,2013-08-23 02:59:00,
2013-08-22 22:04:00,72.1,63.8,29.32,ESE,120,0.0,0.0,75,0.00,CLR,,0.09,WeatherDisplay:10.37,2013-08-23 03:04:00,
2013-08-22 22:09:00,72.0,63.6,29.32,ESE,120,0.0,0.0,75,0.00,CLR,,0.09,WeatherDisplay:10.37,2013-08-23 03:09:00,
2013-08-22 22:14:00,71.8,63.4,29.35,ESE,120,0.0,0.0,75,0.00,CLR,,0.09,WeatherDisplay:10.37,2013-08-23 03:14:00,
2013-08-22 22:19:00,71.4,63.5,29.35,East,82,0.0,0.0,76,0.00,CLR,,0.09,WeatherDisplay:10.37,2013-08-23 03:19:00,
2013-08-22 22:24:00,70.9,62.9,29.35,NNE,27,0.0,0.0,76,0.00,CLR,,0.09,WeatherDisplay:10.37,2013-08-23 03:24:00,
2013-08-22 22:29:00,71.2,63.7,29.35,North,4,0.0,0.0,77,0.00,CLR,,0.09,WeatherDisplay:10.37,2013-08-23 03:29:00,
2013-08-22 22:34:00,70.9,63.7,29.35,North,359,0.0,0.0,78,0.00,CLR,,0.09,WeatherDisplay:10.37,2013-08-23 03:34:00,
2013-08-22 22:39:00,70.9,64.0,29.35,North,359,0.0,0.0,79,0.00,CLR,,0.09,WeatherDisplay:10.37,2013-08-23 03:39:00,
2013-08-22 22:44:00,71.1,64.2,29.35,North,0,0.0,0.0,79,0.00,CLR,,0.09,WeatherDisplay:10.37,2013-08-23 03:44:00,
2013-08-22 22:49:00,71.4,64.6,29.35,North,1,0.0,0.0,79,0.00,CLR,,0.09,WeatherDisplay:10.37,2013-08-23 03:49:00,
2013-08-22 22:54:00,71.2,64.4,29.35,North,4,0.0,0.0,79,0.00,CLR,,0.09,WeatherDisplay:10.37,2013-08-23 03:54:00,
2013-08-22 22:59:00,71.2,64.4,29.35,North,5,0.0,0.0,79,0.00,CLR,,0.09,WeatherDisplay:10.37,2013-08-23 03:59:00,
2013-08-22 23:04:00,71.2,64.4,29.35,North,5,0.0,0.0,79,0.00,CLR,,0.09,WeatherDisplay:10.37,2013-08-23 04:04:00,
2013-08-22 23:09:00,71.4,64.6,29.35,North,5,0.0,0.0,79,0.00,CLR,,0.09,WeatherDisplay:10.37,2013-08-23 04:09:00,
2013-08-22 23:14:00,71.4,64.6,29.35,North,5,0.0,0.0,79,0.00,CLR,,0.09,WeatherDisplay:10.37,2013-08-23 04:14:00,
2013-08-22 23:19:00,71.6,64.4,29.35,North,5,0.0,0.0,78,0.00,CLR,,0.09,WeatherDisplay:10.37,2013-08-23 04:19:00,
2013-08-22 23:24:00,71.2,64.4,29.35,North,5,0.0,0.0,79,0.00,CLR,,0.09,WeatherDisplay:10.37,2013-08-23 04:24:00,
2013-08-22 23:29:00,71.4,64.6,29.35,North,5,0.0,0.0,79,0.00,CLR,,0.09,WeatherDisplay:10.37,2013-08-23 04:29:00,
2013-08-22 23:34:00,71.4,64.2,29.35,North,5,0.0,0.0,78,0.00,CLR,,0.09,WeatherDisplay:10.37,2013-08-23 04:34:00,
2013-08-22 23:39:00,71.4,64.2,29.35,North,5,0.0,0.0,78,0.00,CLR,,0.09,WeatherDisplay:10.37,2013-08-23 04:39:00,
2013-08-22 23:44:00,71.4,64.2,29.35,North,5,0.0,0.0,78,0.00,CLR,,0.09,WeatherDisplay:10.37,2013-08-23 04:44:00,
2013-08-22 23:49:00,71.4,64.2,29.35,North,5,0.0,0.0,78,0.00,SCT,,0.09,WeatherDisplay:10.37,2013-08-23 04:49:00,
2013-08-22 23:54:00,70.9,63.7,29.35,North,5,0.0,0.0,78,0.00,SCT,,0.09,WeatherDisplay:10.37,2013-08-23 04:54:00,
2013-08-22 23:59:00,71.2,64.4,29.35,North,8,1.0,1.0,79,0.00,SCT,,0.00,WeatherDisplay:10.37,2013-08-23 04:59:00,